Location: Strawberry
(45.6646°N, 111.9596°W)
Time: 01:56:11
(UTC+00:00)

Vanguard 1 Rocket - Pass Details

Date: 30 September 2022
Orbit: 650 x 4225 km, 34.3° (Epoch: 05 December)

Event Time Altitude Azimuth Distance (km) Brightness Sun altitude
Rises 06:19:36 0° 258° (WSW) 6,670 11.9 -45.3°
Reaches altitude 10° 06:25:05 10° 253° (WSW) 5,042 11.1 -45.6°
Enters shadow 06:28:10 17° 247° (WSW) 4,096 10.6 -45.8°
